EHI
0 0 0 0 0 0 0 0 0 0 0 0 0 0 0 0 0 0 0 0 0 0 0 0 0 0 0 0 0 0 0 0 0 0 0 0 0 0
0 0 0 0 0 0 0 0 0 0 0 0 0 0 0 0 0 0 0 0 0 0 0 0 0 0 0 0 0 0 0 0 0 0 0 0 0 0
0 0 0 0 0 0 0 0 0 0 0 0 0 0 0 0 0 0 0 0 0 0 0 0 0 0 0 0 0 0 0 0 0 0 0 0 0 0
0 0 0 0 0 0 0 0 0 0 0 0 0 0 0 0 0 0 0 0 0 0 0 0 0 0 0 0 0 0 0 0 0 0 0 0 0 0
0 0 0 0 0 0 0 0 0 0 0 0 0 0 0 0 0 0 0 0 0 0 0 0 0 0 0 0 0 0 0 0 0 0 0 0 0 0
0 0 0 0 0 0 0 0 0 0 0 0 0 0 0 0 0 0 0 0 0 0 0 0 0 0 0 0 0 0 0 0 0 0 0 0 0 0
0 0 0 0 0 0 0 0 0 0 0 0 0 0 0 0 0 0 0 0 0 0 0 0 0 0 0 0 0 0 0 0 0 0 0 0 0 0
0 0 0 0 0 0 0 0 0 0 0 0 0 0 0 0 0 0 0 0 0 0 0 0 0 0 0 0 0 0 0 0 0 0 0 0 0 0
0 0 0 0 0 0 0 0 0 0 0 0 0 0 0 0 0 0 0 0 0 0 0 0 0 0 0 0 0 0 0 0 0 0 0 0 0 0
0 0 0 0 0 0 0 0 0 0 0 0 0 0 0 0 0 0 0 0 0 0 0 0 0 0 0 0 0 0 0 0 0 0 0 0 0 0
0 0 0 0 0 0 0 0 0 0 0 0 0 0 0 0 0 0 0 0 0 0 0 0 0 0 0 0 0 0 0 0 0 0 0 0 0 0
0 0 0 0 0 0 0 0 0 0 0 0 0 0 0 0 0 0 0 0 0 0 0 0 0 0 0 0 0 0 0 0 0 0 0 0 0 0
0 0 0 0 0 0 0 0 0 0 0 0 0 0 0 0 0 0 0 0 0 0 0 0 0 0 0 0 0 0 0 0 0 0 0 0 0 0
0 0 0 0 0 0 0 0 0 0 0 0 0 0 0 0 0 0 0 0 0 0 0 0 0 0 0 0 0 0 0 0 0 0 0 0 0 0
0 0 0 0 0 0 0 0 0 0 0 0 0 0 0 0 0 0 0 0 0 0 0 0 0 0 0 0 0 0 0 0 0 0 0 0 0 0
0 0 0 0 0 0 0 0 0 0 0 0 0 0 0 0 0 0 0 0 0 0 0 0 0 0 0 0 0 0 0 0 0 0 0 0 0 0
0 0 0 0 0 0 0 0 0 0 0 0 0 0 0 0 0 0 0 0 0 0 0 0 0 0 0 0 0 0 0 0 0 0 0 0 0 0
0 0 0 0 0 0 0 0 0 0 0 0 0 0 0 0 0 0 0 0 0 0 0 0 0 0 0 0 0 0 0 0 0 0 0 0 0 0
0 0 0 0 0 0 0 0 0 0 0 0 0 0 0 0 0 0 0 0 0 0 0 0 0 0 0 0 0 0 0 0 0 0 0 0 0 0
0 0 0 0 0 0 0 0 0 0 0 0 0 0 0 0 0 0 0 0 0 0 0 0 0 0 0 0 0 0 0 0 0 0 0 0 0 0
0 0 0 0 0 0 0 0 0 0 0 0 0 0 0 0 0 0 0 0 0 0 0 0 0 0 0 0 0 0 0 0 0 0 0 0 0 0
0 0 0 0 0 0 0 0 0 0 0 0 0 0 0 0 0 0 0 0 0 0 0 0 0 0 0 0 0 0 0 0 0 0 0 0 0 0
0 0 0 0 0 0 0 0 0 0 0 0 0 0 0 0 0 0 0 0 0 0 0 0 0 0 0 0 0 0 0 0 0 0 0 0 0 0
Wind_Speed
5 5 5 4 4 4 3 3 4 5 6 4 3 3 3 3 5 4 4 7 8 9 9 8 8 8 8 8 8 7 7 6 7 7 8 8 8 8
5 6 6 4 4 4 4 4 4 5 6 4 3 3 4 4 6 5 5 8 9 9 10 9 8 8 9 8 8 7 7 6 7 8 8 8 8 8
6 7 7 6 5 4 4 5 5 4 6 6 3 3 4 4 4 4 5 5 6 9 10 9 8 8 9 9 9 8 7 7 7 8 8 8 8 8
7 7 8 6 7 6 5 6 5 5 6 7 5 3 4 5 4 5 5 5 5 8 9 10 9 9 9 9 8 8 7 7 6 7 8 8 9 8
7 7 8 8 8 6 6 6 6 6 5 6 6 4 4 4 4 4 5 4 5 6 8 10 9 9 8 9 8 8 7 7 6 7 7 8 8 8
7 7 7 8 8 8 7 7 6 6 5 6 5 4 4 4 3 4 4 4 4 4 5 6 7 8 8 9 9 8 7 7 7 6 6 6 7 8
7 7 7 8 10 9 7 6 6 6 5 5 5 5 4 4 4 3 5 4 4 3 3 4 4 4 6 7 8 9 8 8 7 7 6 5 5 6
7 7 7 8 10 13 13 11 9 8 7 7 6 7 6 5 4 4 4 4 5 3 3 4 3 4 5 5 7 9 10 9 8 8 7 6 6 5
7 6 7 7 9 8 10 12 11 12 11 8 8 8 7 6 6 6 6 6 6 3 3 5 4 5 4 5 8 9 10 10 9 8 8 7 6 6
7 7 8 7 8 8 8 8 8 8 9 8 8 8 7 6 7 7 7 6 5 3 3 4 3 3 3 3 7 9 9 9 9 8 8 7 7 6
7 8 8 8 10 11 8 8 7 7 8 10 10 10 10 10 8 4 5 5 5 3 2 2 2 2 2 3 4 7 7 7 7 7 7 7 6 5
6 7 10 10 11 11 8 7 8 7 5 6 7 8 7 7 9 7 6 6 4 3 2 2 2 1 2 1 1 2 3 4 5 6 6 6 5 3
5 5 6 10 11 11 10 7 8 7 5 5 5 5 5 5 5 5 6 6 5 4 3 2 2 1 2 2 1 2 2 2 3 3 4 5 6 4
5 4 5 8 9 10 8 8 9 7 4 4 4 4 4 4 4 4 5 5 4 4 4 3 3 3 2 2 2 2 2 2 2 3 3 5 5 5
4 7 7 7 8 6 7 8 7 4 3 4 4 4 4 4 3 3 3 2 1 2 3 3 3 3 3 3 3 2 2 2 2 2 3 3 3 3
4 6 7 7 6 5 5 4 4 3 3 4 4 3 2 2 3 2 2 2 1 1 1 2 2 3 3 3 3 3 3 3 3 2 3 3 3 3
4 3 2 2 3 3 3 2 2 2 3 3 2 2 2 2 2 1 2 2 2 2 1 0 1 1 1 2 3 4 3 2 3 3 3 3 3 3
4 3 3 2 3 3 3 2 2 2 2 2 2 2 2 2 1 1 1 2 2 2 2 1 1 1 1 2 2 4 3 2 2 3 2 3 4 3
3 2 2 2 2 2 2 2 2 2 2 2 2 2 2 1 1 1 1 1 1 1 1 1 2 2 3 3 2 1 2 2 2 2 3 3 4 3
2 2 2 2 2 2 2 2 2 1 1 2 2 1 1 1 1 1 1 1 1 1 1 1 2 2 3 3 2 2 2 2 2 2 2 1 2 2
2 2 2 2 2 2 2 2 2 2 2 2 2 1 1 1 1 1 1 1 1 1 1 2 1 1 0 1 1 1 1 1 2 2 2 1 2 2
2 2 2 2 2 2 2 2 2 2 2 2 1 1 1 1 1 1 1 1 1 1 1 1 1 0 0 1 1 1 1 1 2 2 2 3 2 3
2 2 2 2 2 2 2 2 2 2 2 1 1 1 1 1 1 1 1 1 1 1 1 0 0 0 0 1 1 1 1 1 1 1 2 2 3 3
Wind_Direction
241 242 246 249 244 244 245 231 233 252 254 238 228 226 233 235 240 236 239 246 256 260 263 267 246 231 233 234 239 237 232 233 233 227 226 228 231 232
239 239 243 246 246 242 244 237 235 240 255 243 236 241 240 252 251 243 245 252 252 255 258 261 251 233 226 227 233 231 226 225 228 226 225 230 233 234
242 243 245 244 243 242 244 239 237 238 254 264 255 253 243 247 255 246 246 238 240 247 251 252 252 235 230 225 229 226 222 221 226 228 228 230 232 235
240 241 245 244 242 241 239 242 237 234 245 261 263 252 250 244 246 252 256 251 243 247 249 248 251 239 230 222 222 215 214 215 222 231 231 231 233 235
241 240 245 243 242 242 240 243 242 241 241 250 259 253 252 246 250 261 259 252 252 247 246 245 244 239 223 223 217 211 214 218 223 230 233 232 231 235
243 242 246 243 241 241 241 239 242 239 239 245 254 254 252 245 238 251 266 255 255 253 249 247 242 238 226 225 213 207 211 217 221 224 229 230 231 232
247 246 248 250 246 244 246 239 240 240 235 240 248 253 255 239 240 245 264 271 261 237 235 238 238 229 215 216 211 204 208 215 218 218 222 227 232 234
250 250 252 255 259 257 254 250 243 241 239 239 245 244 249 245 250 248 256 263 260 224 226 243 228 237 218 208 208 210 213 216 217 215 217 224 229 231
253 255 259 260 261 256 254 254 251 252 249 245 244 242 244 239 241 245 247 257 259 246 242 248 225 235 228 218 211 214 215 216 215 215 217 221 225 230
251 250 251 255 257 258 252 246 243 246 250 249 249 247 248 240 232 238 250 262 273 245 217 240 236 244 245 215 207 210 214 213 210 211 214 217 223 229
254 253 251 250 262 264 257 249 247 248 254 257 257 254 253 252 245 236 240 243 260 240 202 219 235 262 256 230 204 200 204 210 214 214 217 218 221 231
256 254 256 259 265 263 252 248 248 248 250 261 261 258 251 247 245 230 228 233 247 245 202 192 204 193 266 244 188 184 195 212 219 220 221 225 227 223
261 259 254 264 266 262 260 251 256 260 249 250 253 247 242 237 232 230 227 228 231 239 217 191 214 235 236 267 257 214 202 208 210 216 227 232 234 229
260 264 263 266 267 267 265 266 269 267 255 254 256 251 243 240 235 230 230 229 231 228 213 207 219 218 219 248 253 219 203 200 213 225 220 229 231 236
264 272 278 275 269 264 272 278 272 258 250 254 259 263 254 239 232 227 208 197 229 254 222 217 212 213 220 233 242 237 240 232 215 219 216 218 228 226
276 276 275 274 274 277 283 276 263 259 250 251 257 263 267 245 229 215 197 187 197 280 277 211 201 203 221 233 228 237 225 213 211 225 236 238 231 225
277 272 274 269 264 259 257 265 267 261 259 257 259 269 270 269 260 225 209 203 214 224 244 164 130 158 227 235 233 234 224 223 217 215 228 245 237 227
283 280 281 277 273 277 276 272 272 274 267 264 262 265 267 270 284 302 240 212 210 214 217 195 159 178 291 306 263 226 223 223 215 210 212 242 255 244
285 277 280 286 290 294 286 278 276 287 283 272 275 275 272 270 282 297 281 257 225 214 215 206 205 206 232 259 290 247 218 220 214 223 224 235 250 248
299 292 293 297 298 300 302 289 282 287 288 284 280 279 274 273 278 278 275 272 260 247 241 236 228 223 225 233 256 291 278 228 217 226 240 256 271 278
309 304 301 296 297 301 305 307 298 281 278 275 279 284 276 271 269 270 279 289 281 253 247 267 277 280 213 146 220 271 306 307 257 232 228 244 277 279
301 300 300 303 303 302 302 300 302 297 287 278 282 284 279 267 256 254 250 250 262 259 272 289 305 310 170 193 211 228 286 342 6 358 302 254 233 234
305 302 299 301 299 300 301 294 288 290 298 289 285 284 274 267 261 255 254 245 234 230 227 263 329 46 46 173 186 207 208 276 301 339 339 338 325 303